Terminal Aerodrome Forecast
Issued by NWS Blacksburg, VA

Home | Current Version | Previous Version | Text Only | Print | Product List | Glossary On
Versions: 1 2 3 4 5 6 7 8 9 10 11 12 13 14 15
000
FTUS41 KRNK 211120
TAFLYH
TAF
KLYH 211120Z 2112/2212 05003KT P6SM FEW250
     FM212100 11005KT P6SM BKN250
     FM221100 00000KT P6SM SCT150 BKN250=

USA.gov is the U.S. government's official web portal to all federal, state and local government web resources and services.